AL7IH Weather Reports


Display with metric or nautical units.
time (UTC)temp
F
wind
direction
speed
MPH
gust
MPH
rain 1hr
in
rain 24hr
in
rain mn
in
humidity
%
barometer
mb
20260506231520 75 51 1.0 4.0 0.00 0.00 0.00 67 1011.9
20260506230023 77 129 0.0 6.0 0.00 0.00 0.00 65 1011.8
20260506224527 77 112 2.0 5.0 0.00 0.00 0.00 66 1011.6
20260506223017 77 86 1.0 5.0 0.00 0.00 0.00 64 1011.5
20260506221513 79 56 2.0 9.0 0.00 0.00 0.00 61 1011.5
20260506220022 82 154 1.0 7.0 0.00 0.00 0.00 61 1011.2
20260506214525 84 98 1.0 3.0 0.00 0.00 0.00 60 1010.8
20260506213028 86 15 1.0 4.0 0.00 0.00 0.00 62 1010.8
20260506211519 85 107 1.0 3.0 0.00 0.00 0.00 63 1011.0
20260506210019 86 89 1.0 3.0 0.00 0.00 0.00 63 1011.0
20260506204522 85 39 1.0 2.0 0.00 0.00 0.00 67 1011.0
20260506203036 84 102 0.0 2.0 0.00 0.00 0.00 68 1011.3
20260506201531 83 81 1.0 3.0 0.00 0.00 0.00 68 1011.5
20260506200017 81 84 1.0 4.0 0.00 0.00 0.00 72 1011.5
20260506194521 80 128 1.0 3.0 0.00 0.00 0.00 77 1011.7
20260506193026 79 146 1.0 3.0 0.00 0.00 0.00 76 1011.9
20260506191527 81 92 1.0 2.0 0.00 0.00 0.00 73 1012.0
20260506190028 82 19 0.0 2.0 0.00 0.00 0.00 72 1011.8
20260506184521 80 70 1.0 2.0 0.00 0.00 0.00 76 1012.0
20260506183022 77 68 1.0 3.0 0.00 0.00 0.00 81 1012.3
20260506181528 75 101 1.0 2.0 0.00 0.00 0.00 82 1012.5
20260506180029 75 96 1.0 2.0 0.00 0.00 0.00 83 1012.8
20260506174520 75 95 0.0 2.0 0.00 0.00 0.00 82 1012.8
20260506173027 77 79 0.0 2.0 0.00 0.00 0.00 81 1012.7
20260506171527 79 89 0.0 3.0 0.00 0.00 0.00 80 1012.6
20260506170026 80 105 0.0 2.0 0.00 0.00 0.00 78 1012.5
20260506164527 80 301 0.0 0.0 0.00 0.00 0.00 77 1012.5
20260506163025 79 284 0.0 2.0 0.00 0.00 0.00 78 1012.5
20260506161524 78 124 0.0 2.0 0.00 0.00 0.00 81 1012.2
20260506160028 78 183 0.0 2.0 0.00 0.00 0.00 82 1012.2
20260506154528 76 236 0.0 2.0 0.00 0.00 0.00 85 1011.9
20260506153028 75 287 0.0 0.0 0.00 0.00 0.00 87 1011.9
20260506151526 75 287 0.0 1.0 0.00 0.00 0.00 89 1011.8
20260506150026 74 248 0.0 0.0 0.00 0.00 0.00 89 1011.9
20260506144533 74 248 0.0 0.0 0.00 0.00 0.00 89 1011.7
20260506143032 74 215 0.0 2.0 0.00 0.00 0.00 89 1011.7
20260506141518 74 228 0.0 2.0 0.00 0.00 0.00 89 1011.5
20260506140025 74 309 0.0 2.0 0.00 0.00 0.00 89 1011.0
20260506134527 74 306 1.0 3.0 0.00 0.00 0.00 89 1010.7
20260506133030 74 301 0.0 3.0 0.00 0.00 0.00 89 1010.2
20260506131532 74 306 1.0 2.0 0.00 0.00 0.00 90 1010.1
20260506130024 74 272 0.0 2.0 0.00 0.00 0.00 90 1010.1
20260506124524 74 331 0.0 3.0 0.00 0.00 0.00 90 1009.9
20260506123029 73 302 1.0 3.0 0.00 0.00 0.00 90 1009.7
20260506121516 73 281 0.0 2.0 0.00 0.00 0.00 90 1009.7
20260506120022 73 312 0.0 3.0 0.00 0.00 0.00 90 1009.7
20260506114528 73 288 0.0 1.0 0.00 0.00 0.00 91 1009.8
20260506113026 73 315 0.0 0.0 0.00 0.00 0.00 91 1009.7
20260506111528 73 317 0.0 2.0 0.00 0.00 0.00 91 1009.7
20260506110022 73 271 0.0 2.0 0.00 0.00 0.00 91 1009.8
20260506104527 73 312 0.0 2.0 0.00 0.00 0.00 91 1009.8
20260506103033 73 339 0.0 4.0 0.00 0.00 0.00 91 1009.8
20260506101541 73 336 1.0 2.0 0.00 0.00 0.00 91 1009.7
20260506100028 73 282 1.0 4.0 0.00 0.00 0.00 91 1009.8
20260506094525 73 316 1.0 5.0 0.00 0.00 0.00 91 1009.9
20260506093004 74 281 1.0 6.0 0.00 0.00 0.00 90 1009.8
20260506091513 74 313 1.0 6.0 0.00 0.00 0.00 90 1009.6
20260506090016 74 302 2.0 4.0 0.00 0.00 0.00 89 1009.5
20260506084520 74 318 1.0 8.0 0.00 0.00 0.00 89 1009.4
20260506083006 74 262 2.0 7.0 0.00 0.00 0.00 89 1009.3
20260506081508 74 302 2.0 6.0 0.00 0.00 0.00 89 1009.5
20260506073038 75 319 2.0 7.0 0.00 0.00 0.00 88 1009.9
20260506071505 75 271 3.0 5.0 0.00 0.00 0.00 87 1010.1
20260506061526 75 359 0.0 7.0 0.00 0.00 0.00 86 1010.0
20260506044531 77 269 2.0 8.0 0.00 0.00 0.00 84 1009.9
20260506043016 77 270 2.0 6.0 0.00 0.00 0.00 84 1009.6
20260506041523 77 289 1.0 3.0 0.00 0.00 0.00 85 1009.5
20260506040028 77 254 1.0 2.0 0.00 0.00 0.00 84 1009.4
20260506034527 77 270 0.0 3.0 0.00 0.00 0.00 83 1009.4
20260506033016 76 283 1.0 2.0 0.00 0.00 0.00 84 1009.0
20260506031519 76 240 0.0 2.0 0.00 0.00 0.00 83 1008.8
20260506030026 76 233 0.0 0.0 0.00 0.00 0.00 81 1008.6
20260506024529 77 253 0.0 2.0 0.00 0.00 0.00 80 1008.3
20260506023012 77 280 0.0 1.0 0.00 0.00 0.00 79 1008.3
20260506021518 78 289 0.0 0.0 0.00 0.00 0.00 78 1008.0
20260506020024 78 289 0.0 1.0 0.00 0.00 0.00 78 1007.9
20260506014529 79 285 0.0 2.0 0.00 0.00 0.00 75 1007.6
20260506013027 80 302 0.0 2.0 0.00 0.00 0.00 74 1007.3
20260506011517 81 295 0.0 2.0 0.00 0.00 0.00 72 1007.2
20260506010021 82 280 0.0 2.0 0.00 0.00 0.00 1007.0
20260506004533 83 280 0.0 0.0 0.00 0.00 0.00 69 1007.2
20260506003038 84 280 0.0 1.0 0.00 0.00 0.00 66 1007.2
20260506001528 84 284 0.0 2.0 0.00 0.00 0.00 65 1007.2
20260506000025 85 284 0.0 3.0 0.00 0.00 0.00 63 1007.3
20260505234532 85 308 0.0 3.0 0.00 0.00 0.00 64 1007.2
20260505233027 86 279 1.0 3.0 0.00 0.00 0.00 62 1007.2